Weather History for Dayton, OH

Change the Weather History Date:

Thursday, June 20, 2013

  Actual Average Record
Temperature  
Mean Temperature 71 °F 72 °F  
Max Temperature 85 °F 82 °F 98 °F (1994)
Min Temperature 57 °F 62 °F 46 °F (1914)
Degree Days  
Heating Degree Days 0 0  
Month to date heating degree days 11 22  
Since 1 June heating degree days 11 22  
Since 1 July heating degree days 5457 5642  
Cooling Degree Days 6 7  
Month to date cooling degree days 103 108  
Year to date cooling degree days 234 178  
Since 1 June cooling degree days 103 108  
Growing Degree Days 20 (Base 50)    
Moisture  
Dew Point 54 °F    
Average Humidity 56    
Maximum Humidity 75    
Minimum Humidity 37    
Precipitation  
Precipitation 0.00 in 0.14 in 1.85 in (1895)
Month to date precipitation 2.17 2.81  
Year to date precipitation 16.47 19.85  
Snow  
Snow 0.00 in 0.00 in 0.00 in ()
Month to date snowfall 0.0 0.0  
Since 1 June snowfall 0.0 0.0  
Since 1 July snowfall 36.3 23.3  
Snow Depth 0.00 in    
Sea Level Pressure  
Sea Level Pressure 30.18 in    
Wind  
Wind Speed 5 mph (SE)    
Max Wind Speed 9 mph    
Max Gust Speed 10 mph    
Visibility 10 miles    
Events      
T = Trace of Precipitation, MM = Missing Value Source: NWS Daily Summary

Daily Weather History Graph

Daily Weather History Graph

Search for Another Location

Airport:

Trip Planner

Search our weather history database for the weather conditions in past years. The results will help you decide how hot, cold, wet, or windy it might be!

Date:

Astronomy

Jun. 20, 2013 Rise Set
Actual Time 6:08 AM EDT 9:08 PM EDT
Civil Twilight 5:35 AM EDT 9:41 PM EDT
Nautical Twilight 4:53 AM EDT 10:23 PM EDT
Astronomical Twilight 4:05 AM EDT 11:11 PM EDT
Moon 6:10 PM EDT (6/20) 3:34 AM EDT (6/20)
Length of Visible Light 16h 06m
Length of Day
15h 00m
Waxing Gibbous, 89% of the Moon is Illuminated
Jun 20
Waxing Gibbous
Jun 23
Full
Jun 30
Last Quarter
Jul 8
New
Jul 15
First Quarter

Hourly Weather History & Observations

Time (EDT) Temp. Heat Index Dew Point Humidity Pressure Visibility Wind Dir Wind Speed Gust Speed Precip Events Conditions
12:56 AM 64.9 °F - 46.0 °F 50% 30.15 in 10.0 mi ESE 5.8 mph - N/A   Clear
1:56 AM 64.0 °F - 46.9 °F 54% 30.14 in 10.0 mi ESE 6.9 mph - N/A   Clear
2:56 AM 60.1 °F - 48.9 °F 67% 30.15 in 10.0 mi Calm Calm - N/A   Clear
3:56 AM 60.1 °F - 48.9 °F 67% 30.15 in 10.0 mi ESE 4.6 mph - N/A   Clear
4:56 AM 59.0 °F - 48.9 °F 69% 30.16 in 10.0 mi ESE 4.6 mph - N/A   Clear
5:56 AM 57.9 °F - 48.9 °F 72% 30.18 in 10.0 mi Calm Calm - N/A   Scattered Clouds
6:56 AM 59.0 °F - 52.0 °F 78% 30.19 in 10.0 mi East 3.5 mph - N/A   Mostly Cloudy
7:56 AM 64.9 °F - 51.1 °F 61% 30.20 in 10.0 mi SE 4.6 mph - N/A   Mostly Cloudy
8:56 AM 68.0 °F - 52.0 °F 56% 30.22 in 10.0 mi SSE 5.8 mph - N/A   Mostly Cloudy
9:56 AM 73.0 °F - 55.0 °F 53% 30.22 in 10.0 mi Calm Calm - N/A   Mostly Cloudy
10:56 AM 75.9 °F - 55.9 °F 50% 30.22 in 10.0 mi South 4.6 mph - N/A   Scattered Clouds
11:56 AM 78.1 °F - 57.0 °F 48% 30.21 in 10.0 mi South 3.5 mph - N/A   Scattered Clouds
12:56 PM 79.0 °F - 55.9 °F 45% 30.20 in 10.0 mi SW 4.6 mph - N/A   Scattered Clouds
1:56 PM 81.0 °F 80.7 °F 55.0 °F 41% 30.19 in 10.0 mi West 3.5 mph - N/A   Scattered Clouds
2:56 PM 82.0 °F 81.7 °F 57.0 °F 42% 30.19 in 10.0 mi East 4.6 mph - N/A   Scattered Clouds
3:56 PM 84.0 °F 82.9 °F 55.0 °F 37% 30.19 in 10.0 mi WNW 6.9 mph - N/A   Scattered Clouds
4:56 PM 82.9 °F 82.1 °F 55.9 °F 39% 30.18 in 10.0 mi Calm Calm - N/A   Scattered Clouds
5:56 PM 80.1 °F 80.7 °F 59.0 °F 48% 30.18 in 10.0 mi ENE 5.8 mph - N/A   Scattered Clouds
6:56 PM 82.0 °F 81.6 °F 55.9 °F 41% 30.17 in 10.0 mi SE 6.9 mph - N/A   Scattered Clouds
7:56 PM 80.1 °F 80.4 °F 57.0 °F 45% 30.16 in 10.0 mi SSE 6.9 mph - N/A   Scattered Clouds
8:56 PM 75.9 °F - 57.9 °F 54% 30.16 in 10.0 mi SSE 8.1 mph - N/A   Partly Cloudy
9:56 PM 75.9 °F - 57.0 °F 52% 30.16 in 10.0 mi South 3.5 mph - N/A   Clear
10:56 PM 72.0 °F - 57.9 °F 61% 30.19 in 10.0 mi SE 9.2 mph - N/A   Clear
11:56 PM 71.1 °F - 57.9 °F 63% 30.20 in 10.0 mi SSE 6.9 mph - N/A   Clear